SENTINEL-3B (43437 NORAD) Tracking and Keplerian Element Data

This shows tracking and keplerian element data for the satellite.

Feedback or suggestion? Click here.




ElementValue
Catalog43437
NameSENTINEL-3B
Epoch Orbit7590
Epoch Day283.12648057
Epoch Year2019
RAAN348.3867
Inclination98.6193
Eccentricity0.0001068
Argument of Perigee124.825
Mean Anonmoly235.3031
Mean Motion14.26739541
Decay Rate-3E-08
L11 43437U 18039A 19283.12648057 -.00000003 00000-0 16642-4 0 9995
L22 43437 98.6193 348.3867 0001068 124.8250 235.3031 14.26739541 75905

Live tracking and technical data element details for SENTINEL-3B (NORAD 43437). SENTINEL-3B can be tracked NOW for your location showing map with azimuth and elevation plus other details from your city location.

Track the satellite on the map from your city or location and see movement details for azimuth, elevation, latitude, longitude, range, height, and movement on the map or in text.







IsCatalogInMostPopularTable: catalog: 43437, numindb: 361
Update: records affected: 1



GetName: 43437 SENTINEL-3B

Hit Count: updated at: Mon, 14 Oct 2019 01:26:59 GMT